This demonstration page uses our WeatherBlox Daily Observations layout. Learn more.

Left ArrowRight Arrow

38.88101, -77.10428

Hourly Observations for May 12, 2022

Temp ( °F °C ) Dew Point ( °F °C ) Humidity (%) Winds ( mph kmh ) Pressure ( in mb ) Visibility ( mi km ) Precip ( " mm )
12:52 am 00:52 Partly Cloudy 60 15.6 53 11.7 78 78 NNE 5 7 30.22 1023 10 16 0.00 0.00
1:52 am 01:52 Partly Cloudy 60 15.6 53 11.7 78 78 ENE 5 7 30.22 1023 10 16 0.00 0.00
2:52 am 02:52 Mostly Cloudy 59 15 52 11.1 78 78 NNE 3 6 30.21 1023 10 16 0.00 0.00
3:52 am 03:52 Mostly Cloudy 59 15 52 11.1 78 78 NNE 7 11 30.20 1023 10 16 0.00 0.00
4:52 am 04:52 Partly Cloudy 58 14.4 52 11.1 81 81 NE 8 13 30.20 1023 10 16 0.00 0.00
5:52 am 05:52 Mostly Clear 58 14.4 52 11.1 81 81 N 9 15 30.20 1023 10 16 0.00 0.00
6:19 am 06:19 Mostly Cloudy 59 15 53 11.7 81 81 NNE 8 13 30.21 1023 10 16 0.00 0.00
6:52 am 06:52 Cloudy 59 15 53 11.7 81 81 NNE 9 15 30.21 1023 10 16 0.00 0.00
7:52 am 07:52 Cloudy 60 15.6 54 12.2 80 80 NNE 13 20 30.23 1024 10 16 0.00 0.00
8:52 am 08:52 Cloudy 61 16.1 55 12.8 81 81 NNE 14 22 30.24 1024 10 16 0.00 0.00
9:52 am 09:52 Cloudy 61 16.1 56 13.3 84 84 NNE 13 20 30.25 1024 10 16 0.00 0.00
10:52 am 10:52 Cloudy 68 20 57 13.9 68 68 NE 8 13 30.26 1025 10 16 0.00 0.00
11:52 am 11:52 Cloudy 68 20 58 14.4 70 70 NE 6 9 30.26 1025 10 16 0.00 0.00
12:52 pm 12:52 Cloudy 69 20.6 59 15 70 70 NE 13 20 30.25 1024 10 16 0.00 0.00
1:52 pm 13:52 Cloudy 72 22.2 60 15.6 66 66 NE 9 15 30.24 1024 10 16 0.00 0.00
2:45 pm 14:45 Mostly Cloudy 73 22.8 61 16.1 66 66 NE 12 19 30.24 1024 10 16 0.00 0.00
2:52 pm 14:52 Mostly Cloudy 73 22.8 60 15.6 64 64 NE 10 17 30.24 1024 10 16 0.00 0.00
3:13 pm 15:13 Cloudy 71 21.7 60 15.6 68 68 ENE 12 19 30.23 1024 10 16 0.00 0.00
3:52 pm 15:52 Cloudy 72 22.2 60 15.6 66 66 ENE 10 17 30.22 1024 10 16 0.00 0.00
4:52 pm 16:52 Cloudy 70 21.1 61 16.1 73 73 NE 9 15 30.22 1023 10 16 0.00 0.00
4:55 pm 16:55 Cloudy 71 21.7 61 16.1 71 71 NE 8 13 30.23 1024 10 16 0.00 0.00
5:44 pm 17:44 Cloudy 70 21.1 61 16.1 73 73 NE 12 19 30.22 1023 10 16 0.00 0.00
5:52 pm 17:52 Cloudy 71 21.7 61 16.1 71 71 NE 18 30 30.22 1024 10 16 0.00 0.00
6:45 pm 18:45 Cloudy 71 21.7 61 16.1 71 71 ENE 13 20 30.22 1023 10 16 0.00 0.00
6:52 pm 18:52 Cloudy 70 21.1 62 16.7 76 76 E 8 13 30.22 1023 9 14 0.00 0.00
7:02 pm 19:02 Cloudy with Light Rain 70 21.1 62 16.7 76 76 E 15 24 30.22 1023 5 8 0.00 0.00
7:18 pm 19:18 Cloudy 68 20 62 16.7 81 81 E 8 13 30.22 1023 9 14 0.00 0.00
7:52 pm 19:52 Mostly Cloudy 67 19.4 62 16.7 84 84 ESE 5 7 30.22 1024 10 16 0.00 0.00
8:52 pm 20:52 Cloudy 67 19.4 62 16.7 84 84 SE 5 7 30.23 1024 10 16 0.00 0.00
9:32 pm 21:32 Cloudy 66 18.9 62 16.7 87 87 SE 7 11 30.25 1024 10 16 0.00 0.00
9:52 pm 21:52 Mostly Cloudy 66 18.9 61 16.1 84 84 ESE 5 7 30.23 1024 10 16 0.00 0.00
10:52 pm 22:52 Cloudy 66 18.9 60 15.6 81 81 ENE 5 7 30.22 1024 10 16 0.00 0.00
11:52 pm 23:52 Cloudy 65 18.3 60 15.6 84 84 ENE 5 7 30.22 1024 10 16 0.00 0.00

Powered by AerisWeather